Погода в Стройкерамике

Россия / Самарская область     53°16′13″N   50°23′36″E
В апреле 2022 года жителям России запретили посещать сайт meteo.paraplan.net по решению Генеральной прокуратуры. Аудитория сайта уменьшилась в 10 раз. Владельцы сайта не видят смысла в поддержке погодного сервера в таких условиях. Сайт будет закрыт в октябре.
темп.,
°C
ветер,
м/с
пор.,
м/с
влажн.,
%
обл.,
%
осадки,
мм/ч
давл.,
гПа
погр.,
м
4 октября, вт
вт401:00+13ююв61330100 0.0 1023498
04:00+12юв6133096 0.0 1023464
07:00+11юв41028100 0.0 1024306
10:00+14ююв61326100 0.0 1025662
13:00+16ююв8102292 0.0 1026892
16:00+16ююв6112181 0.0 1026722
19:00+14ююв61222100 0.0 1026540
22:00+14ююв51025100 0.0 1026547
5 октября, ср
ср501:00+11юв3739100 0.5 1026219
04:00+12ююв51130100 0.5 1026519
07:00+10юв3744100 0.3 1025235
10:00+9юв4947100 1.3 1025358
13:00+13ююв61033100 0.2 1024693
16:00+12ююв51138100 0.2 1024481
19:00+11ю71370100 0.4 1024555
22:00+9вюв3785100 4.8 1022305
6 октября, чт
чт601:00+10юв2471100 0.1 1020122
04:00+10ю2260100 0.1 101833
07:00+10юз2584100 0.0 1017161
10:00+12зюз58671 0.0 1017845
13:00+13зюз685643 0.1 10171565
16:00+12з6758100 0.4 10181143
19:00+10з2469100 0.1 1019132
22:00+8сз247995 0.3 1019231
7 октября, пт
пт701:00+7зсз36785 0.1 1019174
04:00+5зсз238614 0.1 102071
07:00+6зюз258293 0.0 1020287
10:00+9з35685 0.0 1020685
13:00+12зюз56536 0.0 10201224
16:00+11юз5854100 0.0 1019692
19:00+10юз5974100 0.0 1019308
22:00+12зсз5108164 0.0 1020596
8 октября, сб
сб801:00+11зсз6116594 0.0 1021841
04:00+12сз5105488 0.0 1022576
07:00+8з410730 0.0 1024253
10:00+12зсз57630 0.0 1026637
13:00+15зсз56490 0.0 10261106
16:00+15зсз45460 0.0 10251069
19:00+11з22610 0.0 102616
22:00+10зюз22660 0.0 102724